| time (UTC) | temp F | wind direction | speed MPH | gust MPH | rain 1hr in | rain 24hr in | rain mn in | humidity % | barometer mb |
| 20260506061541 | 54 | 313 | 0.0 | 4.0 | 0.00 | 0.00 | 0.00 | 94 | 1020.0 |
| 20260506044543 | 54 | 285 | 0.0 | 1.0 | 0.00 | 0.00 | 0.00 | 96 | 1019.8 |
| 20260506043028 | 54 | 286 | 0.0 | 1.0 | 0.00 | 0.00 | 0.00 | 96 | 1019.8 |
| 20260506041528 | 54 | 286 | 0.0 | 1.0 | 0.00 | 0.00 | 0.00 | 96 | 1019.7 |
| 20260506040027 | 55 | 286 | 0.0 | 1.0 | 0.00 | 0.00 | 0.00 | 95 | 1019.6 |
| 20260506034526 | 55 | 286 | 0.0 | 2.0 | 0.00 | 0.00 | 0.00 | 95 | 1019.4 |
| 20260506033029 | 55 | 286 | 1.0 | 4.0 | 0.00 | 0.00 | 0.00 | 95 | 1019.3 |
| 20260506031540 | 55 | 267 | 0.0 | 3.0 | 0.00 | 0.00 | 0.00 | 95 | 1019.1 |
| 20260506030029 | 55 | 278 | 1.0 | 4.0 | 0.00 | 0.00 | 0.00 | 95 | 1019.0 |
| 20260506024529 | 56 | 286 | 1.0 | 6.0 | 0.00 | 0.00 | 0.00 | 93 | 1019.1 |
| 20260506023024 | 56 | 279 | 0.0 | 2.0 | 0.00 | 0.00 | 0.00 | 93 | 1018.8 |
| 20260506021522 | 56 | 290 | 0.0 | 3.0 | 0.00 | 0.00 | 0.00 | 93 | 1018.8 |
| 20260506020022 | 57 | 278 | 0.0 | 2.0 | 0.00 | 0.00 | 0.00 | 92 | 1018.7 |
| 20260506014523 | 57 | 275 | 1.0 | 4.0 | 0.00 | 0.00 | 0.00 | 91 | 1018.7 |
| 20260506013023 | 57 | 293 | 1.0 | 4.0 | 0.00 | 0.00 | 0.00 | 91 | 1018.8 |
| 20260506011542 | 57 | 284 | 0.0 | 5.0 | 0.00 | 0.00 | 0.00 | 90 | 1018.9 |
| 20260506010044 | 57 | 288 | 1.0 | 5.0 | 0.00 | 0.00 | 0.00 | 89 | 1018.6 |
| 20260506004522 | 57 | 241 | 1.0 | 7.0 | 0.00 | 0.00 | 0.00 | 91 | 1018.7 |
| 20260506003022 | 58 | 299 | 1.0 | 4.0 | 0.00 | 0.00 | 0.00 | 89 | 1018.8 |
| 20260506001518 | 58 | 278 | 1.0 | 5.0 | 0.00 | 0.00 | 0.00 | 90 | 1018.8 |
| 20260506000018 | 58 | 263 | 0.0 | 6.0 | 0.00 | 0.00 | 0.00 | 90 | 1019.0 |
| 20260505234516 | 58 | 301 | 3.0 | 6.0 | 0.00 | 0.00 | 0.00 | 89 | 1019.2 |
| 20260505233015 | 58 | 272 | 1.0 | 5.0 | 0.00 | 0.00 | 0.00 | 88 | 1019.2 |
| 20260505231515 | 58 | 272 | 3.0 | 7.0 | 0.00 | 0.00 | 0.00 | 88 | 1019.2 |
| 20260505230023 | 58 | 303 | 4.0 | 7.0 | 0.00 | 0.00 | 0.00 | 87 | 1019.2 |
| 20260505224514 | 59 | 278 | 0.0 | 5.0 | 0.00 | 0.00 | 0.00 | 87 | 1019.3 |
| 20260505223013 | 58 | 290 | 1.0 | 5.0 | 0.00 | 0.00 | 0.00 | 89 | 1019.4 |
| 20260505221513 | 58 | 277 | 3.0 | 7.0 | 0.00 | 0.00 | 0.00 | 88 | 1019.3 |
| 20260505220012 | 58 | 275 | 3.0 | 6.0 | 0.00 | 0.00 | 0.00 | 88 | 1019.3 |
| 20260505214512 | 58 | 239 | 1.0 | 7.0 | 0.00 | 0.00 | 0.00 | 89 | 1019.4 |
| 20260505213020 | 58 | 297 | 3.0 | 8.0 | 0.00 | 0.00 | 0.00 | 87 | 1019.6 |
| 20260505211509 | 58 | 272 | 0.0 | 5.0 | 0.00 | 0.00 | 0.00 | 88 | 1019.6 |
| 20260505210008 | 58 | 274 | 1.0 | 6.0 | 0.00 | 0.00 | 0.00 | 88 | 1019.5 |
| 20260505204506 | 59 | 238 | 1.0 | 8.0 | 0.00 | 0.00 | 0.00 | 87 | 1019.5 |
| 20260505203004 | 58 | 226 | 0.0 | 10.0 | 0.00 | 0.00 | 0.00 | 89 | 1019.3 |
| 20260505201602 | 58 | 224 | 3.0 | 8.0 | 0.00 | 0.00 | 0.00 | 87 | 1019.4 |
| 20260505200202 | 58 | 218 | 5.0 | 10.0 | 0.00 | 0.00 | 0.00 | 88 | 1019.4 |
| 20260505194558 | 58 | 211 | 2.0 | 8.0 | 0.00 | 0.00 | 0.00 | 87 | 1019.4 |
| 20260505193058 | 57 | 210 | 4.0 | 9.0 | 0.00 | 0.00 | 0.00 | 89 | 1019.4 |
| 20260505191607 | 57 | 199 | 5.0 | 11.0 | 0.00 | 0.00 | 0.00 | 89 | 1019.4 |
| 20260505190103 | 57 | 243 | 5.0 | 11.0 | 0.00 | 0.00 | 0.00 | 89 | 1019.2 |
| 20260505184602 | 57 | 220 | 5.0 | 9.0 | 0.00 | 0.00 | 0.00 | 89 | 1019.3 |
| 20260505183119 | 57 | 198 | 5.0 | 9.0 | 0.00 | 0.00 | 0.00 | 89 | 1019.2 |
| 20260505181554 | 57 | 264 | 2.0 | 8.0 | 0.00 | 0.00 | 0.00 | 89 | 1019.1 |
| 20260505180053 | 57 | 240 | 2.0 | 7.0 | 0.00 | 0.00 | 0.00 | 88 | 1019.0 |
| 20260505174551 | 57 | 199 | 0.0 | 6.0 | 0.00 | 0.00 | 0.00 | 91 | 1019.0 |
| 20260505173053 | 57 | 282 | 1.0 | 3.0 | 0.00 | 0.00 | 0.00 | 91 | 1019.0 |
| 20260505171557 | 56 | 284 | 0.0 | 5.0 | 0.00 | 0.00 | 0.00 | 92 | 1019.0 |
| 20260505170047 | 56 | 240 | 0.0 | 4.0 | 0.00 | 0.00 | 0.00 | 92 | 1018.8 |
| 20260505164545 | 56 | 217 | 3.0 | 7.0 | 0.00 | 0.00 | 0.00 | 92 | 1018.7 |
| 20260505163044 | 56 | 210 | 1.0 | 6.0 | 0.00 | 0.00 | 0.00 | 93 | 1018.5 |
| 20260505161551 | 56 | 218 | 2.0 | 7.0 | 0.00 | 0.00 | 0.00 | 93 | 1018.3 |
| 20260505153037 | 55 | 220 | 0.0 | 0.0 | 0.00 | 0.00 | 0.00 | 94 | 1018.2 |
| 20260505151537 | 54 | 220 | 0.0 | 0.0 | 0.00 | 0.00 | 0.00 | 94 | 1018.1 |
| 20260505124522 | 53 | 205 | 0.0 | 4.0 | 0.00 | 0.00 | 0.00 | 96 | 1017.2 |
| 20260505123019 | 53 | 219 | 0.0 | 4.0 | 0.00 | 0.00 | 0.00 | 95 | 1016.9 |
| 20260505121521 | 54 | 201 | 3.0 | 9.0 | 0.00 | 0.00 | 0.00 | 95 | 1016.7 |
| 20260505120048 | 54 | 210 | 2.0 | 7.0 | 0.00 | 0.00 | 0.00 | 95 | 1016.6 |
| 20260505114517 | 54 | 215 | 3.0 | 9.0 | 0.00 | 0.00 | 0.00 | 95 | 1016.7 |
| 20260505113015 | 54 | 193 | 4.0 | 9.0 | 0.00 | 0.00 | 0.00 | 95 | 1016.8 |
| 20260505111513 | 54 | 185 | 4.0 | 8.0 | 0.00 | 0.00 | 0.00 | 95 | 1016.9 |
| 20260505101517 | 54 | 205 | 3.0 | 9.0 | 0.00 | 0.00 | 0.00 | 95 | 1016.7 |
| 20260505100009 | 54 | 212 | 3.0 | 8.0 | 0.00 | 0.00 | 0.00 | 95 | 1016.7 |
| 20260505094502 | 54 | 205 | 7.0 | 11.0 | 0.00 | 0.00 | 0.00 | 95 | 1016.7 |
| 20260505093102 | 54 | 218 | 4.0 | 8.0 | 0.00 | 0.00 | 0.00 | 95 | 1016.6 |
| 20260505091605 | 54 | 204 | 6.0 | 11.0 | 0.00 | 0.00 | 0.00 | 95 | 1016.5 |
| 20260505090056 | 54 | 206 | 2.0 | 8.0 | 0.00 | 0.00 | 0.00 | 96 | 1016.4 |
| 20260505084555 | 54 | 184 | 3.0 | 8.0 | 0.00 | 0.00 | 0.00 | 96 | 1016.4 |
| 20260505083054 | 54 | 220 | 4.0 | 10.0 | 0.00 | 0.00 | 0.00 | 97 | 1016.5 |
| 20260505081553 | 54 | 213 | 3.0 | 9.0 | 0.00 | 0.00 | 0.00 | 97 | 1016.5 |
| 20260505080051 | 54 | 216 | 3.0 | 8.0 | 0.00 | 0.00 | 0.00 | 97 | 1016.5 |
| 20260505074551 | 54 | 206 | 4.0 | 9.0 | 0.00 | 0.00 | 0.00 | 97 | 1016.4 |
| 20260505073101 | 54 | 198 | 3.0 | 8.0 | 0.00 | 0.00 | 0.00 | 97 | 1016.3 |
| 20260505071551 | 54 | 201 | 2.0 | 7.0 | 0.00 | 0.00 | 0.00 | 97 | 1016.1 |
| 20260505070043 | 54 | 224 | 5.0 | 9.0 | 0.00 | 0.00 | 0.00 | 97 | 1016.1 |
| 20260505064543 | 54 | 214 | 4.0 | 9.0 | 0.00 | 0.00 | 0.00 | 97 | 1016.1 |
| 20260505063042 | 54 | 201 | 3.0 | 10.0 | 0.00 | 0.00 | 0.00 | 97 | 1016.0 |